SCP
0 0 0 0 0 0 0 0 0 0 1 1 1 2 3 2 3 3 4 4 4 5 6 6 6 6 7 6 6 9 12 13 12 11 8 5 4 3 3 3 3 3 2 2
0 0 0 0 0 0 0 0 0 0 1 1 2 3 3 2 3 4 4 3 4 6 7 7 6 7 8 7 7 9 12 13 11 10 7 5 4 3 3 3 3 3 3 3
0 0 0 0 0 0 0 1 1 1 1 2 3 3 3 2 3 4 4 3 3 5 6 7 7 7 7 7 7 8 11 12 10 8 6 4 4 4 4 4 4 4 4 4
0 0 0 0 0 1 1 1 1 1 1 2 3 3 2 3 4 4 3 2 3 3 5 6 7 7 5 5 5 7 9 10 8 6 5 5 5 6 6 5 5 5 5 5
0 0 0 0 0 1 1 1 2 2 2 2 2 2 2 3 4 4 3 2 2 3 5 7 8 6 4 4 5 6 7 7 7 6 6 6 6 7 8 7 7 7 6 6
0 0 0 1 0 0 1 1 2 2 2 2 2 2 3 4 4 3 2 2 2 4 6 9 8 6 5 5 5 5 6 6 7 7 7 6 6 6 8 9 8 8 7 7
0 0 1 0 0 1 1 1 2 2 2 2 2 3 3 4 4 3 2 2 3 5 8 10 8 6 5 6 6 6 6 6 7 8 8 8 7 7 7 8 8 8 7 7
1 1 1 1 1 1 2 2 2 3 3 2 3 3 4 4 3 2 2 3 4 7 9 9 7 6 7 7 7 6 6 6 7 9 9 10 10 10 9 8 8 7 7 6
1 1 1 1 1 1 2 2 3 3 3 3 3 3 4 4 3 2 3 4 6 7 8 8 6 6 7 7 7 7 6 6 7 9 10 11 13 13 12 11 10 8 6 6
2 2 2 2 1 1 1 2 2 2 3 3 3 4 4 3 3 3 4 5 6 7 8 7 6 6 7 7 7 7 7 8 9 10 10 12 14 15 14 13 12 11 9 9
2 2 2 2 2 1 1 2 2 2 3 3 4 5 5 5 5 5 5 6 7 7 7 8 8 8 7 8 8 9 10 11 11 11 11 13 16 16 13 11 11 11 11 11
2 2 2 2 2 2 2 2 3 3 3 4 4 5 6 7 8 8 8 8 8 7 8 9 10 10 9 9 9 11 12 12 11 10 11 13 17 17 12 8 7 7 7 7
2 2 2 2 2 2 3 3 3 4 4 4 4 4 5 7 8 9 10 11 11 10 10 10 11 10 9 10 11 12 13 11 10 9 9 11 14 16 14 9 6 3 2 2
3 3 2 2 2 2 3 3 3 3 4 4 4 4 4 5 7 8 9 11 13 13 12 11 10 10 9 10 11 12 11 10 10 10 11 11 12 14 14 12 8 4 2 1
3 3 2 2 2 2 2 2 2 2 3 3 4 4 4 5 6 6 8 10 12 14 13 12 11 11 10 11 12 12 12 11 13 15 16 14 13 13 12 10 8 5 4 3
3 3 2 2 2 1 1 2 2 2 2 2 3 3 4 5 5 6 7 9 11 13 13 12 12 11 10 12 14 15 16 15 16 18 18 16 13 11 9 7 6 5 5 5
3 3 3 2 2 1 1 1 2 2 2 2 2 2 3 3 4 5 7 8 10 11 12 11 10 10 11 14 16 18 19 17 15 15 14 12 10 8 6 5 6 6 7 6
3 3 2 2 1 1 0 1 2 2 2 2 2 2 2 2 3 4 5 6 8 9 9 8 8 9 13 16 18 18 17 14 12 10 9 7 6 5 5 5 6 7 8 7
3 3 2 1 1 1 0 1 1 3 3 3 2 2 2 2 3 3 3 4 6 7 7 6 6 8 12 13 14 13 11 8 7 7 6 5 5 5 5 5 6 8 9 9
3 3 2 1 1 1 0 1 1 3 3 3 3 2 2 2 3 3 3 4 5 6 5 5 5 7 8 7 6 6 5 4 4 5 5 5 4 5 5 6 6 7 8 9
3 3 2 1 1 1 1 1 2 2 3 2 2 2 2 3 2 3 3 4 4 5 4 4 4 5 4 3 3 3 3 4 4 5 4 4 4 5 6 6 6 6 7 7
3 2 2 1 1 1 1 2 2 3 3 2 2 2 2 2 2 3 4 4 4 3 3 3 3 3 2 2 3 3 4 4 5 5 4 4 5 6 7 8 7 6 6 5
2 2 1 1 1 1 1 2 2 3 3 4 4 2 2 2 2 3 3 3 2 2 2 2 2 1 1 2 3 4 4 5 6 5 4 5 6 8 9 9 9 8 7 6
2 1 1 1 1 1 1 2 2 2 3 4 4 3 3 3 3 3 3 2 1 1 1 2 1 0 1 3 4 4 5 5 6 5 4 4 7 9 10 10 10 9 8 7
1 1 1 1 1 1 1 1 2 2 2 3 3 3 3 3 3 3 2 1 1 0 1 1 0 0 2 3 4 4 4 4 4 3 2 3 5 7 9 9 8 7 7 6
1 1 1 1 1 1 1 1 1 2 2 2 2 2 2 2 2 2 2 1 1 0 0 0 0 0 1 2 3 3 3 2 1 1 1 2 3 4 5 6 5 4 4 3
1 1 1 1 1 1 1 1 1 2 2 2 2 2 2 2 2 2 1 1 1 1 1 0 0 0 1 2 2 2 1 1 1 1 1 1 1 2 3 4 4 3 2 2
Wind_Speed
10 8 9 12 13 14 16 15 14 11 10 6 3 2 3 3 5 6 6 6 5 5 4 4 5 5 5 5 5 6 6 6 6 6 5 5 5 5 4 4 4 4 4 4
11 10 10 12 13 14 15 14 14 12 9 3 2 2 3 3 5 6 5 5 5 5 5 4 4 4 4 5 5 5 6 6 5 5 5 5 5 5 5 4 4 4 4 4
11 11 12 15 13 13 13 12 12 12 7 3 4 3 3 4 5 5 5 4 4 4 4 4 4 4 4 4 4 5 5 6 6 6 6 5 5 5 5 5 5 4 4 4
10 11 17 8 6 10 11 9 8 6 4 4 4 3 3 3 4 4 4 4 4 4 3 3 4 4 4 4 5 5 5 6 6 5 5 5 5 5 5 5 5 5 4 4
10 13 12 7 5 7 9 9 7 7 5 4 3 4 3 2 2 2 3 3 3 3 4 3 3 4 4 4 5 5 5 5 5 5 5 5 5 5 5 5 5 5 5 4
11 13 13 7 4 3 7 10 3 4 4 4 5 7 3 2 1 1 1 2 2 3 3 3 3 3 4 5 5 5 5 5 5 5 6 6 5 5 4 5 5 5 5 5
13 13 8 0 1 5 10 3 1 1 2 3 4 4 2 0 0 1 1 1 2 3 3 3 3 3 4 4 5 5 4 5 5 5 6 6 5 5 5 5 5 5 5 5
11 13 8 2 3 4 2 4 1 1 1 2 2 2 2 1 1 1 1 1 2 3 3 3 3 4 4 5 4 4 4 5 5 5 5 5 5 5 5 5 6 6 5 5
6 4 3 2 1 2 2 2 2 2 1 2 2 2 2 2 2 2 2 2 2 3 3 3 3 4 4 4 4 4 5 5 5 5 5 5 5 6 5 6 5 5 5 5
5 3 1 0 1 2 3 3 3 2 2 2 3 3 3 3 3 3 3 3 3 3 4 3 3 3 3 3 4 5 5 5 5 5 5 5 4 5 5 5 5 5 5 4
7 5 3 2 3 4 4 3 3 3 3 3 3 4 4 3 3 3 3 4 4 4 4 4 3 3 3 3 4 5 5 5 5 5 5 5 5 4 5 4 3 3 4 4
5 3 5 4 4 4 5 4 4 4 4 4 4 4 4 4 3 4 4 4 4 4 4 4 4 4 3 4 5 5 5 5 5 5 4 5 5 5 2 1 2 1 2 4
5 5 6 5 4 5 6 6 6 6 6 5 5 5 5 4 4 4 4 4 5 5 5 4 4 4 4 4 5 6 6 5 5 5 5 5 5 5 5 4 3 4 5 5
5 5 6 6 6 6 7 7 7 6 6 6 5 5 4 4 4 4 4 4 4 4 4 4 4 4 4 4 4 5 6 5 5 4 5 5 5 5 5 5 5 5 7 8
6 6 7 7 7 7 7 7 7 6 6 5 5 4 4 4 4 4 4 4 3 4 4 4 4 3 3 4 5 5 5 4 4 4 5 5 4 5 5 5 5 4 4 5
6 7 7 7 7 7 8 8 8 7 6 6 5 4 5 5 4 3 3 3 4 4 3 3 4 3 3 4 4 4 4 3 4 4 4 5 5 5 5 5 5 5 4 4
7 8 7 7 7 8 8 7 7 7 7 6 5 5 5 4 4 4 3 3 3 3 3 3 3 3 3 4 5 4 4 4 6 6 5 5 5 5 5 5 5 5 5 3
7 7 7 7 7 7 7 7 7 6 6 6 5 5 4 4 4 3 3 3 3 3 3 3 3 3 3 4 4 4 3 4 5 5 5 5 4 5 5 5 6 6 5 4
5 5 6 7 7 6 6 7 7 6 6 5 4 4 4 4 4 4 3 4 4 4 3 3 2 4 4 3 3 3 4 4 4 4 4 4 5 5 5 5 6 6 5 5
5 5 5 6 6 6 6 6 6 5 4 4 4 4 4 4 3 4 4 4 4 3 2 1 2 3 3 2 4 4 4 4 4 4 4 4 5 5 5 5 6 5 5 5
4 4 4 5 5 6 5 5 4 3 3 3 3 3 3 3 3 3 4 4 2 2 2 2 2 2 2 2 4 3 3 3 4 4 4 4 5 5 5 4 4 4 4 4
4 4 4 4 4 5 4 3 3 3 3 3 3 3 3 3 3 3 3 3 2 1 2 2 2 1 2 3 3 3 3 3 3 3 4 4 4 4 4 4 4 4 3 3
2 3 3 3 3 3 2 2 2 3 2 2 2 3 3 3 3 3 3 2 2 1 2 2 1 1 2 3 2 2 3 3 3 3 3 4 4 4 4 4 3 3 3 3
1 2 2 2 2 2 2 2 2 2 2 2 2 2 3 3 2 2 2 0 0 1 2 0 0 1 4 3 2 2 3 3 3 2 2 2 2 3 3 3 3 2 2 3
1 2 2 2 2 1 2 2 1 1 2 1 2 2 2 2 2 2 2 1 1 2 2 1 2 3 3 2 2 2 2 2 2 3 3 3 3 3 3 3 3 3 3 3
2 2 2 2 2 2 2 1 1 1 1 1 2 2 2 1 1 1 1 1 0 1 1 1 1 3 2 2 2 2 2 2 2 3 3 3 3 3 2 3 3 3 3 3
1 1 1 2 1 1 1 1 1 2 2 2 2 2 2 2 1 1 1 0 0 0 0 1 1 1 1 1 1 1 2 2 1 2 2 2 2 2 2 3 3 2 3 3
Wind_Direction
252 258 239 222 220 220 230 242 250 244 242 238 222 212 196 183 178 171 167 167 167 170 165 169 174 179 186 189 188 187 187 192 193 189 188 192 192 195 194 199 200 203 208 210
232 233 237 236 232 230 233 239 246 248 246 236 217 217 196 189 187 183 178 177 173 172 172 178 180 185 185 185 186 185 187 189 190 190 186 190 191 189 187 189 197 202 207 210
229 219 229 231 230 231 230 233 239 242 245 216 209 211 209 202 199 196 192 187 186 185 184 183 184 182 186 183 185 187 188 187 189 191 192 193 194 188 188 189 193 202 204 206
235 222 233 231 226 233 233 230 239 246 242 229 231 218 210 210 200 200 197 195 195 202 198 189 184 181 180 179 189 189 184 186 190 192 191 189 194 195 196 196 196 198 204 204
236 231 232 216 212 226 228 226 232 238 238 233 219 194 187 183 202 208 205 205 205 206 198 187 187 184 186 188 190 193 191 190 193 194 190 191 196 202 203 200 199 199 196 202
233 239 234 217 170 226 234 226 210 237 237 242 226 226 196 160 215 221 214 195 197 196 190 178 176 182 196 197 195 200 199 198 198 198 196 196 197 205 208 205 205 204 192 199
233 237 240 324 153 201 225 209 105 242 238 240 249 289 354 331 287 256 227 201 190 186 183 171 170 187 203 209 210 208 201 198 198 199 200 195 193 200 205 204 197 203 198 199
230 232 226 125 196 226 6 23 326 249 270 289 293 315 316 296 289 270 233 206 187 188 183 172 178 193 210 218 218 209 204 201 202 205 206 190 191 194 201 199 192 197 201 206
248 246 60 92 90 44 13 321 311 299 320 310 298 289 294 282 267 262 248 235 220 211 207 199 193 205 220 222 213 207 206 206 204 204 206 197 194 193 195 201 206 204 202 204
243 226 231 213 336 324 318 309 311 304 296 298 303 297 286 275 267 263 251 238 227 219 222 221 215 222 230 223 209 208 210 206 203 204 204 199 204 201 202 203 209 210 213 211
239 243 254 243 299 305 305 304 309 305 296 297 302 297 287 271 261 258 251 246 238 233 231 232 226 226 226 214 205 209 211 207 209 209 205 201 205 212 217 213 225 230 228 219
251 250 267 271 284 301 299 296 292 289 289 291 287 281 277 272 267 262 257 253 247 245 243 235 230 227 223 218 208 207 210 210 212 211 201 207 204 200 185 215 159 208 294 295
272 288 296 288 285 295 296 294 291 285 282 283 279 272 267 264 260 261 260 258 253 249 244 239 232 228 221 214 210 214 221 221 220 215 206 211 214 213 204 194 200 218 224 235
267 274 274 278 284 293 298 295 288 285 283 278 277 272 263 254 252 255 261 263 262 256 247 239 234 229 215 205 207 216 224 221 225 218 215 217 218 222 222 213 207 213 213 214
256 260 268 279 283 289 294 292 284 279 277 272 266 265 260 254 251 258 262 263 261 254 249 245 242 237 224 209 211 222 231 229 223 221 214 215 219 222 227 232 235 228 212 186
266 269 271 273 277 282 285 285 281 281 279 274 272 264 257 252 250 256 259 261 259 258 256 255 255 251 238 226 219 225 231 245 238 228 217 210 215 223 224 226 230 233 232 212
258 263 270 279 283 283 283 281 281 283 283 280 275 265 256 248 249 251 263 267 265 260 254 252 255 254 240 227 230 233 226 211 215 227 223 221 225 228 230 234 236 237 243 230
252 262 271 278 281 284 287 287 283 278 280 279 273 262 251 246 257 264 269 275 276 268 258 250 248 244 231 228 237 245 236 226 220 224 226 228 233 238 239 242 246 247 245 211
255 263 274 280 282 283 285 285 283 280 277 271 266 260 257 256 257 259 262 264 267 265 265 262 241 237 231 232 245 241 241 241 241 236 236 230 232 239 244 248 250 248 246 235
266 269 276 283 285 284 282 283 280 278 280 276 266 260 258 262 263 257 253 254 266 283 284 265 242 238 238 230 245 240 240 242 243 241 241 243 244 247 249 253 251 245 242 241
271 270 274 280 286 289 287 281 276 280 284 280 271 265 269 272 266 259 255 257 268 280 267 225 238 247 244 249 236 248 247 245 247 248 249 248 248 250 252 254 254 247 244 246
268 260 259 266 276 280 281 278 278 280 276 280 283 277 274 272 266 259 256 275 299 315 262 248 246 291 295 263 240 250 254 252 248 249 251 252 253 253 252 251 249 248 247 249
269 265 268 271 276 284 292 291 290 289 293 304 311 308 296 288 281 272 269 276 291 312 280 298 2 2 264 248 249 250 257 257 254 253 254 256 256 258 258 253 248 247 248 248
298 291 293 294 298 294 298 308 313 317 318 311 308 304 292 278 269 275 296 260 243 257 284 18 119 234 241 248 250 255 257 257 260 267 270 269 265 263 260 258 258 255 253 255
319 311 302 294 287 284 288 294 307 315 304 323 325 325 300 294 300 310 308 310 308 253 255 170 171 203 229 247 254 262 266 282 291 291 285 281 273 268 268 263 256 255 256 259
328 315 325 310 302 287 286 303 312 315 317 327 332 336 331 338 315 298 293 283 312 297 279 243 189 201 231 242 253 268 273 258 244 247 263 269 268 269 274 281 280 271 264 263
317 321 299 298 309 313 320 318 308 314 320 324 330 338 345 347 329 321 319 316 41 121 196 233 237 230 227 236 257 269 270 272 269 267 267 276 285 286 288 286 286 286 281 274